Total_Precipitation_Accumulation
1.90 1.91 1.75 1.78 1.77 1.99 2.38 2.80 2.84 3.08 3.15 2.87 2.45 2.26 2.33 2.21 2.15 2.04 1.67 1.76 1.95 2.00 1.98 1.94 1.92 1.87 1.86 1.77 1.56 1.42 1.24 1.12 0.97 0.77 0.62 0.53 0.55 0.50 0.39 0.29 0.20 0.15 0.13
1.70 1.65 1.62 1.74 1.80 1.78 1.93 2.34 2.59 2.88 2.92 2.62 2.20 2.07 2.07 2.10 1.98 1.92 1.68 1.72 1.84 1.74 1.75 1.95 2.10 2.11 2.04 1.89 1.74 1.60 1.42 1.27 1.08 0.83 0.71 0.65 0.50 0.47 0.49 0.37 0.26 0.18 0.12
1.39 1.37 1.45 1.42 1.49 1.49 1.52 1.68 1.93 2.16 2.18 2.11 2.07 2.09 2.04 1.95 1.78 1.74 1.78 1.72 1.53 1.58 1.65 1.77 1.92 2.01 2.16 2.24 2.14 1.94 1.69 1.42 1.17 0.91 0.71 0.58 0.49 0.38 0.33 0.34 0.34 0.26 0.15
0.89 0.93 0.99 0.98 0.97 0.92 1.00 1.21 1.34 1.52 1.75 1.91 2.03 1.98 1.96 1.98 1.80 1.73 1.71 1.68 1.65 1.43 1.62 1.72 1.71 1.76 2.00 2.23 2.29 2.36 2.09 1.70 1.38 1.15 0.90 0.66 0.53 0.44 0.34 0.31 0.35 0.34 0.23
0.70 0.75 0.80 0.86 0.69 0.66 0.70 0.72 0.97 1.14 1.37 1.50 1.42 1.54 1.56 1.59 1.50 1.34 1.35 1.25 1.41 1.37 1.43 1.49 1.57 1.55 1.76 2.17 2.52 2.76 2.60 2.12 1.67 1.41 1.25 1.01 0.82 0.63 0.47 0.39 0.34 0.33 0.28
0.74 0.77 0.70 0.66 0.56 0.61 0.70 0.80 0.98 0.98 1.01 1.13 1.07 1.27 1.22 1.14 1.16 1.09 0.99 1.00 1.06 0.99 1.09 1.22 1.27 1.15 1.47 1.94 2.34 2.63 2.73 2.53 2.12 1.72 1.60 1.47 1.33 0.99 0.69 0.54 0.43 0.38 0.32
0.83 0.82 0.69 0.73 0.63 0.62 0.65 0.69 0.79 0.82 0.80 0.80 1.08 1.29 1.12 0.89 0.87 0.78 0.77 0.88 0.94 0.97 1.13 1.25 1.22 1.21 1.14 1.24 1.39 1.81 2.30 2.69 2.66 2.20 1.91 1.77 1.69 1.33 0.88 0.72 0.65 0.51 0.44
0.77 0.69 0.76 0.64 0.62 0.67 0.69 0.70 0.77 0.80 0.73 0.71 0.94 1.21 1.12 1.18 1.12 0.64 0.72 0.82 0.88 1.02 1.09 1.07 1.13 1.24 1.11 1.15 0.79 0.97 1.54 2.01 2.50 2.47 2.10 1.84 1.80 1.56 1.13 0.90 0.78 0.68 0.59
0.73 0.72 0.67 0.66 0.76 0.60 0.73 0.83 0.81 0.79 0.77 0.69 0.69 0.89 0.97 0.98 0.93 0.83 0.71 0.70 0.78 0.97 1.02 1.06 1.04 1.14 1.19 1.29 1.18 0.87 1.06 1.27 1.81 2.40 2.48 2.06 1.70 1.50 1.33 1.20 1.03 0.80 0.70
0.77 0.75 0.67 0.71 0.79 0.68 0.85 0.68 0.69 0.77 0.77 0.67 0.63 0.54 0.57 0.69 0.80 0.89 0.81 0.68 0.71 0.80 0.84 0.79 0.85 1.03 1.08 1.09 1.10 0.76 0.60 0.75 1.28 1.98 2.37 2.32 1.97 1.64 1.43 1.39 1.47 1.33 1.04
0.89 0.79 0.76 0.77 0.73 0.68 0.74 0.75 0.88 0.79 0.76 0.71 0.63 0.56 0.60 0.56 0.52 0.63 0.78 0.80 0.78 0.61 0.56 0.62 0.74 0.90 0.96 1.00 1.13 0.85 0.59 0.65 0.85 1.21 1.58 1.88 1.97 1.80 1.57 1.61 1.92 2.10 1.87
0.93 0.90 0.91 0.87 0.79 0.70 0.70 0.71 0.79 0.82 0.86 0.91 0.76 0.63 0.65 0.61 0.54 0.57 0.54 0.55 0.65 0.54 0.50 0.54 0.64 0.75 0.83 0.95 0.94 0.76 0.73 0.81 0.85 0.90 1.01 1.19 1.45 1.54 1.51 1.58 1.83 2.18 2.36
0.83 0.84 0.85 0.91 0.85 0.82 0.80 0.79 0.77 0.77 0.84 0.88 0.77 0.66 0.59 0.51 0.53 0.57 0.59 0.49 0.47 0.43 0.53 0.50 0.54 0.59 0.61 0.83 1.04 1.05 0.90 0.92 0.88 0.84 0.85 0.88 0.99 1.16 1.19 1.24 1.44 1.77 2.11
0.89 0.85 0.85 0.82 0.81 0.82 0.82 0.93 0.78 0.71 0.76 0.75 0.70 0.78 0.71 0.49 0.49 0.56 0.61 0.65 0.65 0.61 0.66 0.63 0.69 0.72 0.70 0.79 0.98 1.09 0.92 0.86 0.75 0.68 0.68 0.68 0.73 0.84 0.94 0.98 1.04 1.15 1.32
0.99 0.92 0.85 0.83 0.86 0.87 0.88 0.92 0.85 0.84 0.84 0.74 0.69 0.77 0.71 0.58 0.52 0.45 0.55 0.67 0.83 0.84 0.79 0.75 0.84 0.88 0.80 0.82 0.88 0.83 0.88 0.90 0.79 0.69 0.61 0.58 0.58 0.59 0.63 0.69 0.74 0.75 0.76
0.88 0.92 0.90 0.83 0.87 0.91 0.96 0.98 0.95 1.01 1.06 0.95 0.83 0.83 0.78 0.70 0.70 0.56 0.54 0.66 0.80 0.90 0.91 0.69 0.78 0.82 0.87 0.79 0.87 0.84 0.88 0.89 0.76 0.69 0.59 0.55 0.54 0.54 0.53 0.54 0.58 0.64 0.65
0.91 0.92 0.90 0.85 0.83 0.86 0.92 0.95 0.93 1.05 1.18 1.22 1.07 0.96 0.90 0.86 0.87 0.76 0.75 0.79 0.83 0.96 1.05 0.92 0.89 0.99 1.03 0.97 0.96 0.91 0.84 0.83 0.76 0.72 0.61 0.55 0.52 0.51 0.53 0.53 0.53 0.53 0.58
1.05 1.05 1.03 1.01 0.94 0.88 0.92 0.90 0.84 0.89 1.06 1.25 1.41 1.43 1.25 1.12 1.08 0.96 0.95 0.93 0.92 0.98 1.06 1.10 1.07 1.10 1.10 1.09 1.06 0.90 0.74 0.69 0.72 0.75 0.67 0.62 0.60 0.56 0.54 0.52 0.52 0.50 0.51
1.25 1.27 1.27 1.21 1.15 1.12 1.08 1.04 0.98 0.95 0.99 1.08 1.27 1.45 1.44 1.44 1.27 1.19 1.12 1.04 0.99 0.94 1.00 1.04 1.06 1.20 1.26 1.24 1.07 0.81 0.70 0.72 0.65 0.76 0.74 0.61 0.55 0.52 0.49 0.45 0.41 0.39 0.38
1.41 1.44 1.45 1.38 1.30 1.26 1.25 1.23 1.19 1.17 1.16 1.15 1.15 1.19 1.27 1.43 1.36 1.29 1.23 1.16 1.13 1.12 1.11 1.09 1.12 1.26 1.43 1.46 1.22 0.91 0.78 0.74 0.70 0.60 0.63 0.59 0.55 0.51 0.47 0.42 0.39 0.37 0.36
1.60 1.69 1.63 1.54 1.48 1.45 1.35 1.41 1.51 1.49 1.49 1.35 1.22 1.14 1.11 1.24 1.32 1.32 1.20 1.15 1.20 1.22 1.19 1.15 1.19 1.33 1.46 1.54 1.29 1.03 0.87 0.80 0.75 0.66 0.59 0.53 0.51 0.49 0.51 0.53 0.51 0.44 0.40
1.82 1.76 1.70 1.69 1.65 1.50 1.60 1.61 1.51 1.51 1.63 1.61 1.47 1.37 1.23 1.14 1.14 1.19 1.23 1.26 1.24 1.22 1.24 1.26 1.28 1.35 1.44 1.48 1.51 1.33 1.10 0.89 0.77 0.70 0.68 0.61 0.54 0.51 0.45 0.42 0.49 0.48 0.43
1.74 1.68 1.71 1.75 1.72 1.73 1.66 1.45 1.31 1.27 1.33 1.41 1.45 1.41 1.21 1.10 1.13 1.09 1.21 1.26 1.19 1.12 1.07 1.13 1.18 1.26 1.53 1.70 1.81 1.54 1.29 1.10 0.90 0.79 0.74 0.65 0.60 0.55 0.47 0.45 0.54 0.48 0.44
1.54 1.52 1.52 1.45 1.41 1.38 1.36 1.19 1.12 1.09 1.11 1.09 1.18 1.26 1.22 1.12 1.07 1.03 0.97 0.91 0.88 0.89 0.86 0.82 0.88 1.06 1.33 1.69 1.87 1.85 1.73 1.48 1.27 1.04 0.84 0.71 0.61 0.56 0.55 0.51 0.58 0.54 0.48
1.32 1.22 1.17 1.16 1.15 1.19 1.29 1.12 1.04 1.02 1.05 0.98 0.97 0.99 0.99 0.90 0.88 0.81 0.77 0.69 0.66 0.66 0.65 0.66 0.70 0.86 1.07 1.33 1.66 1.82 1.76 1.54 1.28 1.01 0.79 0.68 0.61 0.58 0.54 0.50 0.50 0.56 0.49
1.24 1.21 1.15 1.11 1.09 1.10 1.20 1.05 0.99 0.98 1.01 0.96 0.94 0.98 1.04 0.90 0.76 0.61 0.61 0.64 0.57 0.54 0.56 0.56 0.57 0.62 0.73 0.93 1.27 1.40 1.37 1.32 1.14 0.92 0.67 0.60 0.55 0.60 0.56 0.47 0.40 0.39 0.41